Ephrata, WA

2:35 PM PST on November 19, 2017 (GMT -0800)
Ephrata Municipal

Weather History for KEPH - December, 2013

Change the Weather History Date:

Saturday, December 7, 2013

  Actual Average Record
Temperature  
Mean Temperature 10 °F 29 °F  
Max Temperature 21 °F 35 °F 51 °F (1973)
Min Temperature -1 °F 22 °F -1 °F (2013)
Degree Days  
Heating Degree Days 55 36  
Month to date heating degree days 285 247  
Since 1 July heating degree days 1654 1666  
Cooling Degree Days 0 0  
Month to date cooling degree days 0 0  
Year to date cooling degree days 1084 772  
Moisture  
Dew Point -6 °F    
Average Humidity 44    
Maximum Humidity 62    
Minimum Humidity 25    
Precipitation  
Precipitation 0.00 in 0.04 in 0.52 in (2015)
Month to date precipitation T 0.29  
Year to date precipitation 5.70 6.90  
Sea Level Pressure  
Sea Level Pressure 30.36 in    
Wind  
Wind Speed 12 mph (North)    
Max Wind Speed 22 mph    
Max Gust Speed 26 mph    
Visibility 10 miles    
Events      
T = Trace of Precipitation, MM = Missing Value Source: NWS Daily Summary

Daily Weather History Graph

Daily Weather History Graph

Search for Another Location

Airport or City:

Trip Planner

Search our weather history database for the weather conditions in past years. The results will help you decide how hot, cold, wet, or windy it might be!

Date:

Astronomy

Dec. 07, 2013 Rise Set
Actual Time 7:31 AM PST 4:07 PM PST
Civil Twilight 6:56 AM PST 4:43 PM PST
Nautical Twilight 6:17 AM PST 5:22 PM PST
Astronomical Twilight 5:40 AM PST 5:59 PM PST
Moon 11:04 AM PST (12/7) 10:11 PM PST (12/7)
Length of Visible Light 9h 47m
Length of Day
8h 36m
Waxing Crescent, 30% of the Moon is Illuminated
Dec 7
Waxing Crescent
Dec 9
First Quarter
Dec 17
Full
Dec 25
Last Quarter
Jan 1
New

Hourly Weather History & Observations

Time (PST) Temp. Windchill Dew Point Humidity Pressure Visibility Wind Dir Wind Speed Gust Speed Precip Events Conditions
12:53 AM 12.0 °F -4.5 °F -2.9 °F 51% 30.30 in 10.0 mi North 16.1 mph 25.3 mph N/A   Partly Cloudy
1:53 AM 12.0 °F -4.5 °F -2.9 °F 51% 30.30 in 10.0 mi North 16.1 mph 23.0 mph N/A   Clear
2:53 AM 10.9 °F -5.9 °F -2.9 °F 54% 30.31 in 10.0 mi North 16.1 mph - N/A   Clear
3:53 AM 10.9 °F -5.9 °F -2.9 °F 54% 30.30 in 10.0 mi North 16.1 mph - N/A   Clear
4:53 AM 10.9 °F -5.9 °F -2.9 °F 54% 30.30 in 10.0 mi North 16.1 mph - N/A   Clear
5:53 AM 10.9 °F -7.0 °F -2.9 °F 54% 30.32 in 10.0 mi North 18.4 mph - N/A   Clear
6:53 AM 10.9 °F -7.5 °F -4.0 °F 51% 30.32 in 10.0 mi North 19.6 mph - N/A   Clear
7:53 AM 10.0 °F -6.5 °F -4.0 °F 53% 30.34 in 10.0 mi North 15.0 mph 20.7 mph N/A   Clear
8:53 AM 12.9 °F -1.6 °F -4.0 °F 47% 30.37 in 10.0 mi North 12.7 mph - N/A   Clear
9:53 AM 15.1 °F -0.6 °F -5.1 °F 41% 30.38 in 10.0 mi North 16.1 mph - N/A   Clear
10:53 AM 18.0 °F 4.8 °F -5.1 °F 36% 30.37 in 10.0 mi North 12.7 mph - N/A   Clear
11:53 AM 19.9 °F 6.2 °F -6.0 °F 32% 30.36 in 10.0 mi NNE 15.0 mph - N/A   Clear
12:53 PM 19.9 °F 9.3 °F -8.0 °F 29% 30.35 in 10.0 mi North 9.2 mph - N/A   Clear
1:53 PM 21.0 °F 8.1 °F -9.0 °F 26% 30.33 in 10.0 mi North 13.8 mph - N/A   Clear
2:53 PM 19.9 °F 11.1 °F -9.0 °F 27% 30.35 in 10.0 mi North 6.9 mph - N/A   Clear
3:53 PM 17.1 °F 5.8 °F -9.0 °F 31% 30.37 in 10.0 mi NNW 9.2 mph - N/A   Clear
4:53 PM 12.9 °F 2.6 °F -9.0 °F 37% 30.39 in 10.0 mi NNW 6.9 mph - N/A   Clear
5:53 PM 12.0 °F 1.5 °F -9.0 °F 39% 30.39 in 10.0 mi North 6.9 mph - N/A   Clear
6:53 PM 12.9 °F -0.2 °F -7.1 °F 41% 30.41 in 10.0 mi NW 10.4 mph - N/A   Clear
7:53 PM 10.0 °F -4.5 °F -8.0 °F 44% 30.42 in 10.0 mi WNW 11.5 mph - N/A   Clear
8:53 PM 10.0 °F -0.9 °F -8.0 °F 44% 30.41 in 10.0 mi NNW 6.9 mph - N/A   Clear
9:53 PM 9.0 °F -0.9 °F -8.0 °F 46% 30.42 in 10.0 mi WNW 5.8 mph - N/A   Clear
10:53 PM 1.0 °F -8.7 °F -9.9 °F 60% 30.43 in 10.0 mi North 4.6 mph - N/A   Clear
11:53 PM -0.0 °F - -9.9 °F 63% 30.44 in 10.0 mi Calm Calm - N/A   Clear